CW6256 Weather Reports


time (UTC)temp
C
wind
direction
speed
KPH
gust
KPH
rain 1hr
cm
rain 24hr
cm
rain mn
cm
humidity
%
barometer
mb
20260506044550 18 0 0.0 0.0 0.00 0.00 0.00 61 1015.3
20260506043047 18 0 0.0 0.0 0.00 0.00 0.00 58 1015.2
20260506041555 19 0 0.0 1.6 0.00 0.00 0.00 56 1014.9
20260506040055 20 0 0.0 0.0 0.00 0.00 0.00 54 1014.7
20260506034550 20 0 0.0 1.6 0.00 0.00 0.00 53 1014.5
20260506033053 21 0 0.0 1.6 0.00 0.00 0.00 51 1014.3
20260506031547 21 0 0.0 1.6 0.00 0.00 0.00 50 1014.0
20260506030100 22 0 0.0 1.6 0.00 0.00 0.00 48 1013.7
20260506024556 22 0 0.0 3.2 0.00 0.00 0.00 45 1013.5
20260506023050 23 0 0.0 4.8 0.00 0.00 0.00 43 1013.3
20260506021548 23 67 0.0 3.2 0.00 0.00 0.00 41 1013.2
20260506020048 23 51 0.0 4.8 0.00 0.00 0.00 39 1013.1
20260506014557 24 0 0.0 4.8 0.00 0.00 0.00 40 1013.0
20260506013054 25 0 0.0 4.8 0.00 0.00 0.00 39 1012.9
20260506011548 25 76 1.6 8.0 0.00 0.00 0.00 36 1012.9
20260506010056 25 71 0.0 4.8 0.00 0.00 0.00 36 1012.9
20260506004553 25 0 0.0 3.2 0.00 0.00 0.00 37 1012.8
20260506003049 25 0 0.0 3.2 0.00 0.00 0.00 36 1012.7
20260506001553 25 0 1.6 8.0 0.00 0.00 0.00 35 1012.6
20260506000058 25 82 0.0 6.4 0.00 0.00 0.00 35 1012.6
20260505234552 25 0 1.6 6.4 0.00 0.00 0.00 37 1012.6
20260505233104 25 0 1.6 9.7 0.00 0.00 0.00 36 1012.8
20260505231555 25 79 0.0 9.7 0.00 0.00 0.00 38 1012.9
20260505230055 25 0 0.0 4.8 0.00 0.00 0.00 39 1013.0
20260505224558 24 0 0.0 3.2 0.00 0.00 0.00 41 1013.2
20260505223052 24 0 1.6 8.0 0.00 0.00 0.00 40 1013.4
20260505221558 25 0 0.0 4.8 0.00 0.00 0.00 40 1013.6
20260505220049 23 0 0.0 3.2 0.00 0.00 0.00 42 1013.8
20260505214548 23 0 0.0 4.8 0.00 0.00 0.00 44 1013.9
20260505213051 22 0 0.0 6.4 0.00 0.00 0.00 46 1014.0
20260505211549 22 36 0.0 4.8 0.00 0.00 0.00 47 1014.2
20260505210048 22 0 0.0 4.8 0.00 0.00 0.00 52 1014.4
20260505204549 22 0 0.0 4.8 0.00 0.00 0.00 47 1014.4
20260505203056 21 78 1.6 4.8 0.00 0.00 0.00 49 1014.7
20260505201555 21 105 0.0 3.2 0.00 0.00 0.00 56 1014.9
20260505200051 20 0 0.0 4.8 0.00 0.00 0.00 60 1015.1
20260505194556 20 0 0.0 6.4 0.00 0.00 0.00 61 1015.1
20260505193124 19 0 0.0 6.4 0.00 0.00 0.00 63 1015.2
20260505191558 18 0 0.0 4.8 0.00 0.00 0.00 65 1015.4
20260505190048 18 165 0.0 4.8 0.00 0.00 0.00 68 1015.5
20260505184556 17 0 0.0 6.4 0.00 0.00 0.00 68 1015.5
20260505183052 17 166 0.0 4.8 0.00 0.00 0.00 69 1015.7
20260505181556 17 0 0.0 6.4 0.00 0.00 0.00 68 1015.7
20260505180052 16 0 0.0 1.6 0.00 0.00 0.00 71 1015.8
20260505174548 16 70 0.0 4.8 0.00 0.00 0.00 71 1015.8
20260505173048 15 0 0.0 1.6 0.00 0.00 0.00 73 1015.8
20260505171551 15 0 0.0 3.2 0.00 0.00 0.00 76 1015.8
20260505170053 14 0 0.0 1.6 0.00 0.00 0.00 80 1015.8
20260505164551 14 0 0.0 3.2 0.00 0.00 0.00 79 1015.9
20260505163055 13 0 0.0 1.6 0.00 0.00 0.00 80 1015.9
20260505161553 13 0 0.0 3.2 0.00 0.00 0.00 81 1016.0
20260505153101 13 0 0.0 0.0 0.00 0.00 0.00 83 1015.9
20260505151554 13 0 0.0 0.0 0.00 0.00 0.00 84 1015.9
20260505124554 12 0 0.0 0.0 0.00 0.00 0.00 87 1014.8
20260505123110 12 0 0.0 0.0 0.00 0.00 0.00 86 1014.7
20260505121626 12 0 0.0 0.0 0.00 0.00 0.00 85 1014.6
20260505114552 12 0 0.0 0.0 0.00 0.00 0.00 85 1014.3
20260505113054 12 0 0.0 0.0 0.00 0.00 0.00 85 1014.4
20260505111552 12 0 0.0 0.0 0.00 0.00 0.00 85 1014.3
20260505101554 12 0 0.0 0.0 0.00 0.00 0.00 83 1014.1
20260505100056 12 0 0.0 0.0 0.00 0.00 0.00 83 1014.1
20260505094553 12 0 0.0 1.6 0.00 0.00 0.00 82 1014.1
20260505093052 12 0 0.0 1.6 0.00 0.00 0.00 81 1014.3
20260505091610 12 0 0.0 1.6 0.00 0.00 0.00 81 1014.3
20260505090114 13 0 0.0 1.6 0.00 0.00 0.00 81 1014.3
20260505084607 13 0 0.0 0.0 0.00 0.00 0.00 82 1014.3
20260505083112 13 0 0.0 0.0 0.00 0.00 0.00 81 1014.5
20260505081602 13 0 0.0 0.0 0.00 0.00 0.00 81 1014.6
20260505080059 13 0 0.0 0.0 0.00 0.00 0.00 82 1014.7
20260505074649 13 0 0.0 0.0 0.00 0.00 0.00 82 1014.7
20260505073059 13 0 0.0 0.0 0.00 0.00 0.00 82 1014.6
20260505071610 13 0 0.0 0.0 0.00 0.00 0.00 81 1014.5
20260505070127 13 0 0.0 0.0 0.00 0.00 0.00 81 1014.4
20260505070054 13 0 0.0 0.0 0.00 0.00 0.00 81 1014.4
20260505064550 13 0 0.0 0.0 0.00 0.00 0.00 82 1014.3
20260505063053 13 0 0.0 0.0 0.00 0.00 0.00 83 1014.3
20260505061558 12 0 0.0 0.0 0.00 0.00 0.00 84 1014.2